H1 CPF 2 NER 2020 11 20 9 325 01 glonass132 H2 1401201 9132 39620 2020 11 20 0 0 0 2020 11 23 23 45 0 900 1 1 0 0 0 1 H9 10 0 59173 0.00000 0 -15664922.882 500487.151 -20121349.486 10 0 59173 900.00000 0 -13600442.508 -1046061.795 -21546094.207 10 0 59173 1800.00000 0 -11549810.204 -2847210.933 -22552052.782 10 0 59173 2700.00000 0 -9575298.990 -4869718.484 -23119486.232 10 0 59173 3600.00000 0 -7732959.577 -7069177.864 -23237175.453 10 0 59173 4500.00000 0 -6070407.006 -9391652.581 -22902653.734 10 0 59173 5400.00000 0 -4624975.027 -11775725.597 -22122268.546 10 0 59173 6300.00000 0 -3422316.001 -14154879.094 -20911070.333 10 0 59173 7200.00000 0 -2475505.410 -16460105.937 -19292529.435 10 0 59173 8100.00000 0 -1784688.801 -18622643.960 -17298085.781 10 0 59173 9000.00000 0 -1337285.915 -20576718.486 -14966539.359 10 0 59173 9900.00000 0 -1108743.162 -22262177.488 -12343293.050 10 0 59173 10800.00000 0 -1063801.894 -23626908.068 -9479462.502 10 0 59173 11700.00000 0 -1158227.832 -24628931.879 -6430870.806 10 0 59173 12600.00000 0 -1340927.004 -25238090.520 -3256948.445 10 0 59173 13500.00000 0 -1556356.861 -25437249.528 -19561.121 10 0 59173 14400.00000 0 -1747128.435 -25222970.123 3218210.284 10 0 59173 15300.00000 0 -1856687.326 -24605620.772 6393312.197 10 0 59173 16200.00000 0 -1831958.045 -23608924.760 9443957.585 10 0 59173 17100.00000 0 -1625838.111 -22268964.051 12310836.538 10 0 59173 18000.00000 0 -1199435.217 -20632682.940 14938273.563 10 0 59173 18900.00000 0 -523952.134 -18755956.027 17275308.646 10 0 59173 19800.00000 0 417860.495 -16701303.148 19276681.120 10 0 59173 20700.00000 0 1630744.520 -14535348.312 20903697.702 10 0 59173 21600.00000 0 3106507.808 -12326129.724 22124968.931 10 0 59173 22500.00000 0 4824148.330 -10140373.430 22917001.116 10 0 59173 23400.00000 0 6750523.045 -8040843.897 23264633.869 10 0 59173 24300.00000 0 8841533.360 -6083880.809 23161316.436 10 0 59173 25200.00000 0 11043777.645 -4317222.952 22609219.018 10 0 59173 26100.00000 0 13296602.212 -2778207.763 21619178.182 10 0 59173 27000.00000 0 15534466.071 -1492419.158 20210478.383 10 0 59173 27900.00000 0 17689522.125 -472837.605 18410474.287 10 0 59173 28800.00000 0 19694308.636 280474.228 16254061.294 10 0 59173 29700.00000 0 21484440.427 780139.007 13783004.162 10 0 59173 30600.00000 0 23001189.241 1050696.599 11045135.989 10 0 59173 31500.00000 0 24193846.976 1127333.295 8093442.211 10 0 59173 32400.00000 0 25021774.372 1054162.163 4985046.239 10 0 59173 33300.00000 0 25456050.299 882126.801 1780115.250 10 0 59173 34200.00000 0 25480653.013 666616.372 -1459293.636 10 0 59173 35100.00000 0 25093123.869 464892.001 -4670425.397 10 0 59173 36000.00000 0 24304685.160 333432.591 -7791035.039 10 0 59173 36900.00000 0 23139806.233 325311.783 -10760588.478 10 0 59173 37800.00000 0 21635234.912 487716.796 -13521433.470 10 0 59173 38700.00000 0 19838533.403 859714.283 -16019918.102 10 0 59173 39600.00000 0 17806178.641 1470358.321 -18207435.046 10 0 59173 40500.00000 0 15601305.217 2337221.676 -20041371.198 10 0 59173 41400.00000 0 13291184.102 3465414.017 -21485943.983 10 0 59173 42300.00000 0 10944541.668 4847130.528 -22512907.536 10 0 59173 43200.00000 0 8628830.355 6461752.297 -23102114.497 10 0 59173 44100.00000 0 6407564.605 8276496.778 -23241921.723 10 0 59173 45000.00000 0 4337833.302 10247593.351 -22929431.109 10 0 59173 45900.00000 0 2468092.773 12321936.876 -22170559.872 10 0 59173 46800.00000 0 836332.818 14439151.644 -20979937.848 10 0 59173 47700.00000 0 -531307.091 16533980.433 -19380632.793 10 0 59173 48600.00000 0 -1621413.347 18538899.125 -17403708.118 10 0 59173 49500.00000 0 -2433628.703 20386847.381 -15087620.917 10 0 59173 50400.00000 0 -2980424.114 22013960.214 -12477471.669 10 0 59173 51300.00000 0 -3286322.214 23362184.990 -9624120.184 10 0 59173 52200.00000 0 -3386606.246 24381672.759 -6583185.377 10 0 59173 53100.00000 0 -3325570.416 25032842.203 -3413949.249 10 0 59173 54000.00000 0 -3154387.475 25288028.446 -178187.588 10 0 59173 54900.00000 0 -2928685.827 25132646.653 3061048.416 10 0 59173 55800.00000 0 -2705940.861 24565821.257 6240674.235 10 0 59173 56700.00000 0 -2542793.081 23600454.705 9298812.059 10 0 59173 57600.00000 0 -2492408.388 22262733.597 12176003.379 10 0 59173 58500.00000 0 -2601993.671 20591094.246 14816369.449 10 0 59173 59400.00000 0 -2910573.696 18634692.505 17168696.555 10 0 59173 60300.00000 0 -3447123.657 16451443.491 19187425.031 10 0 59173 61200.00000 0 -4229136.085 14105714.610 20833523.292 10 0 59173 62100.00000 0 -5261682.074 11665769.214 22075230.945 10 0 59173 63000.00000 0 -6537005.675 9201067.965 22888657.965 10 0 59173 63900.00000 0 -8034667.744 6779540.211 23258229.874 10 0 59173 64800.00000 0 -9722232.656 4464938.059 23176971.983 10 0 59173 65700.00000 0 -11556468.849 2314381.732 22646628.751 10 0 59173 66600.00000 0 -13485012.995 376196.370 21677617.233 10 0 59173 67500.00000 0 -15448428.779 -1311872.080 20288816.488 10 0 59173 68400.00000 0 -17382575.191 -2723990.103 18507197.532 10 0 59173 69300.00000 0 -19221186.659 -3847065.767 16367301.087 10 0 59173 70200.00000 0 -20898558.731 -4681041.374 13910572.912 10 0 59173 71100.00000 0 -22352228.671 -5238639.147 11184568.870 10 0 59173 72000.00000 0 -23525540.350 -5544571.818 8242044.233 10 0 59173 72900.00000 0 -24369987.405 -5634252.000 5139943.797 10 0 59173 73800.00000 0 -24847237.495 -5552054.852 1938311.190 10 0 59173 74700.00000 0 -24930753.292 -5349206.943 -1300862.460 10 0 59173 75600.00000 0 -24606942.264 -5081389.918 -4514829.161 10 0 59173 76500.00000 0 -23875786.547 -4806159.510 -7641291.695 10 0 59173 77400.00000 0 -22750925.535 -4580288.326 -10619605.338 10 0 59173 78300.00000 0 -21259186.464 -4457144.374 -13391950.776 10 0 59173 79200.00000 0 -19439581.055 -4484216.020 -15904455.625 10 0 59173 80100.00000 0 -17341808.648 -4700888.314 -18108242.785 10 0 59173 81000.00000 0 -15024326.756 -5136565.386 -19960385.134 10 0 59173 81900.00000 0 -12552068.169 -5809219.432 -21424747.763 10 0 59173 82800.00000 0 -9993898.700 -6724429.122 -22472700.903 10 0 59173 83700.00000 0 -7419920.663 -7874949.986 -23083689.098 10 0 59173 84600.00000 0 -4898733.828 -9240837.067 -23245644.867 10 0 59173 85500.00000 0 -2494767.862 -10790116.928 -22955237.841 10 0 59174 0.00000 0 -265797.334 -12479982.884 -22217953.623 10 0 59174 900.00000 0 1739256.704 -14258465.334 -21047999.561 10 0 59174 1800.00000 0 3482146.990 -16066507.847 -19468038.670 10 0 59174 2700.00000 0 4936664.627 -17840363.415 -17508755.352 10 0 59174 3600.00000 0 6089492.331 -19514209.964 -15208261.112 10 0 59174 4500.00000 0 6940509.343 -21022875.055 -12611351.201 10 0 59174 5400.00000 0 7502536.379 -22304554.394 -9768626.689 10 0 59174 6300.00000 0 7800532.105 -23303408.660 -6735499.404 10 0 59174 7200.00000 0 7870276.314 -23971927.961 -3571100.012 10 0 59174 8100.00000 0 7756597.231 -24272963.125 -337111.631 10 0 59174 9000.00000 0 7511219.875 -24181337.187 2903446.847 10 0 59174 9900.00000 0 7190328.698 -23684968.535 6087462.367 10 0 59174 10800.00000 0 6851949.901 -22785458.255 9152968.564 10 0 59174 11700.00000 0 6553266.178 -21498117.262 12040360.335 10 0 59174 12600.00000 0 6347979.211 -19851432.879 14693557.443 10 0 59174 13500.00000 0 6283832.586 -17885998.369 17061093.972 10 0 59174 14400.00000 0 6400400.428 -15652951.531 19097112.488 10 0 59174 15300.00000 0 6727235.124 -13211988.971 20762244.027 10 0 59174 16200.00000 0 7282451.813 -10629039.980 22024357.872 10 0 59174 17100.00000 0 8071808.471 -7973697.533 22859167.961 10 0 59174 18000.00000 0 9088319.303 -5316513.485 23250685.706 10 0 59174 18900.00000 0 10312416.805 -2726269.834 23191512.170 10 0 59174 19800.00000 0 11712654.967 -267338.159 22682965.493 10 0 59174 20700.00000 0 13246923.779 2002764.694 21735042.401 10 0 59174 21600.00000 0 14864124.243 4035525.407 20366215.549 10 0 59174 22500.00000 0 16506234.325 5793200.516 18603071.113 10 0 59174 23400.00000 0 18110680.263 7250129.186 16479793.788 10 0 59174 24300.00000 0 19612915.260 8393540.087 14037508.829 10 0 59174 25200.00000 0 20949099.037 9223820.656 11323493.185 10 0 59174 26100.00000 0 22058767.405 9754239.050 8390270.130 10 0 59174 27000.00000 0 22887381.312 10010131.488 5294603.829 10 0 59174 27900.00000 0 23388649.483 10027589.642 2096412.181 10 0 59174 28800.00000 0 23526527.773 9851703.343 -1142381.998 10 0 59174 29700.00000 0 23276811.472 9534432.308 -4359040.147 10 0 59174 30600.00000 0 22628253.295 9132196.141 -7491215.258 10 0 59174 31500.00000 0 21583159.248 8703283.674 -10478154.362 10 0 59174 32400.00000 0 20157436.049 8305190.539 -13261873.345 10 0 59174 33300.00000 0 18380086.407 7991997.092 -15788281.484 10 0 59174 34200.00000 0 16292171.482 7811897.415 -18008233.857 10 0 59174 35100.00000 0 13945281.976 7804984.109 -19878491.099 10 0 59174 36000.00000 0 11399579.866 8001383.171 -21362567.586 10 0 59174 36900.00000 0 8721490.926 8419818.821 -22431451.081 10 0 59174 37800.00000 0 5981142.876 9066670.356 -23064179.307 10 0 59174 38700.00000 0 3249654.866 9935562.586 -23248261.491 10 0 59174 39600.00000 0 596390.662 11007509.048 -22979935.769 10 0 59174 40500.00000 0 -1913710.368 12251603.941 -22264256.486 10 0 59174 41400.00000 0 -4222613.306 13626235.447 -21115008.603 10 0 59174 42300.00000 0 -6281374.978 15080770.815 -19554449.851 10 0 59174 43200.00000 0 -8051947.023 16557643.315 -17612884.697 10 0 59174 44100.00000 0 -9508519.050 17994753.683 -15328077.642 10 0 59174 45000.00000 0 -10638345.561 19328084.801 -12744516.875 10 0 59174 45900.00000 0 -11442022.224 20494418.820 -9912542.541 10 0 59174 46800.00000 0 -11933200.571 21434041.152 -6887356.914 10 0 59174 47700.00000 0 -12137754.167 22093315.925 -3727936.631 10 0 59174 48600.00000 0 -12092433.013 22427022.848 -495869.308 10 0 59174 49500.00000 0 -11843064.905 22400355.574 2745861.383 10 0 59174 50400.00000 0 -11442381.913 21990496.224 5934116.823 10 0 59174 51300.00000 0 -10947566.170 21187699.077 9006845.026 10 0 59174 52200.00000 0 -10417620.932 19995837.613 11904297.186 10 0 59174 53100.00000 0 -9910679.918 18432392.242 14570194.351 10 0 59174 54000.00000 0 -9481370.130 16527879.955 16952821.039 10 0 59174 54900.00000 0 -9178340.325 14324750.766 19006024.487 10 0 59174 55800.00000 0 -9042059.700 11875798.225 20690100.571 10 0 59174 56700.00000 0 -9102979.242 9242151.345 21972550.194 10 0 59174 57600.00000 0 -9380132.331 6490932.257 22828692.876 10 0 59174 58500.00000 0 -9880232.350 3692677.353 23242127.179 10 0 59174 59400.00000 0 -10597303.966 918628.738 23205030.755 10 0 59174 60300.00000 0 -11512862.445 -1761992.529 22718295.798 10 0 59174 61200.00000 0 -12596632.571 -4284619.633 21791498.580 10 0 59174 62100.00000 0 -13807776.585 -6591772.347 20442704.688 10 0 59174 63000.00000 0 -15096579.657 -8635189.814 18698114.266 10 0 59174 63900.00000 0 -16406522.715 -10377577.434 16591554.275 10 0 59174 64800.00000 0 -17676656.636 -11793897.572 14163827.289 10 0 59174 65700.00000 0 -18844179.396 -12872152.388 11461928.770 10 0 59174 66600.00000 0 -19847109.375 -13613627.789 8538147.087 10 0 59174 67500.00000 0 -20626943.863 -14032589.642 5449062.636 10 0 59174 68400.00000 0 -21131192.223 -14155445.718 2254464.297 10 0 59174 69300.00000 0 -21315677.963 -14019408.851 -983796.789 10 0 59174 70200.00000 0 -21146513.280 -13670717.417 -4202994.876 10 0 59174 71100.00000 0 -20601662.809 -13162487.659 -7340736.511 10 0 59174 72000.00000 0 -19672030.119 -12552287.743 -10336163.757 10 0 59174 72900.00000 0 -18362020.036 -11899535.288 -13131130.845 10 0 59174 73800.00000 0 -16689551.489 -11262827.626 -15671331.677 10 0 59174 74700.00000 0 -14685518.389 -10697317.161 -17907356.199 10 0 59174 75600.00000 0 -12392718.937 -10252242.575 -19795655.128 10 0 59174 76500.00000 0 -9864295.940 -9968720.369 -21299393.986 10 0 59174 77400.00000 0 -7161751.309 -9877890.613 -22389179.386 10 0 59174 78300.00000 0 -4352615.721 -9999496.135 -23043642.939 10 0 59174 79200.00000 0 -1507869.123 -10340956.406 -23249870.665 10 0 59174 80100.00000 0 1300781.466 -10896976.682 -23003668.683 10 0 59174 81000.00000 0 4003654.134 -11649710.533 -22309659.034 10 0 59174 81900.00000 0 6535759.898 -12569470.465 -21181202.676 10 0 59174 82800.00000 0 8839274.791 -13615958.071 -19640150.111 10 0 59174 83700.00000 0 10865712.885 -14739962.866 -17716423.517 10 0 59174 84600.00000 0 12577709.136 -15885458.728 -15447437.746 10 0 59174 85500.00000 0 13950337.125 -16992009.556 -12877371.017 10 0 59175 0.00000 0 14971906.531 -17997382.119 -10056299.484 10 0 59175 900.00000 0 15644207.025 -18840254.629 -7039212.453 10 0 59175 1800.00000 0 15982189.560 -19462905.942 -3884929.215 10 0 59175 2700.00000 0 16013098.794 -19813769.023 -654938.498 10 0 59175 3600.00000 0 15775096.069 -19849740.744 2587814.546 10 0 59175 4500.00000 0 15315432.200 -19538148.018 5780168.848 10 0 59175 5400.00000 0 14688249.933 -18858286.797 8859989.659 10 0 59175 6300.00000 0 13952111.016 -17802468.289 11767386.964 10 0 59175 7200.00000 0 13167354.433 -16376528.280 14445885.220 10 0 59175 8100.00000 0 12393398.993 -14599778.465 16843521.067 10 0 59175 9000.00000 0 11686105.249 -12504402.427 18913847.681 10 0 59175 9900.00000 0 11095308.446 -10134322.480 20616826.603 10 0 59175 10800.00000 0 10662626.260 -7543585.498 21919590.772 10 0 59175 11700.00000 0 10419632.821 -4794335.703 22797065.305 10 0 59175 12600.00000 0 10386474.608 -1954459.151 23232435.550 10 0 59175 13500.00000 0 10570984.847 905002.367 23217455.051 10 0 59175 14400.00000 0 10968332.097 3712561.353 22752589.051 10 0 59175 15300.00000 0 11561216.367 6399007.302 21846992.104 10 0 59175 16200.00000 0 12320603.505 8900030.828 20518321.248 10 0 59175 17100.00000 0 13206966.464 11158642.469 18792388.938 10 0 59175 18000.00000 0 14171981.266 13127287.842 16702662.588 10 0 59175 18900.00000 0 15160606.905 14769573.578 14289620.158 10 0 59175 19800.00000 0 16113462.648 16061534.289 11599973.563 10 0 59175 20700.00000 0 16969403.952 16992389.484 8685774.112 10 0 59175 21600.00000 0 17668189.858 17564760.278 5603416.177 10 0 59175 22500.00000 0 18153130.803 17794337.740 2412557.291 10 0 59175 23400.00000 0 18373606.253 17709017.209 -825025.448 10 0 59175 24300.00000 0 18287346.704 17347534.987 -4046621.475 10 0 59175 25200.00000 0 17862383.917 16757664.369 -7189793.184 10 0 59175 26100.00000 0 17078586.830 15994046.366 -10193579.839 10 0 59175 27000.00000 0 15928717.398 15115745.805 -12999676.026 10 0 59175 27900.00000 0 14418960.388 14183635.106 -15553562.064 10 0 59175 28800.00000 0 12568902.938 13257715.470 -17805564.382 10 0 59175 29700.00000 0 10410962.434 12394488.050 -19711825.197 10 0 59175 30600.00000 0 7989284.235 11644485.892 -21235162.432 10 0 59175 31500.00000 0 5358153.059 11050070.902 -22345802.665 10 0 59175 32400.00000 0 2579982.109 10643589.290 -23021972.347 10 0 59175 33300.00000 0 -277038.040 10445964.080 -23250335.069 10 0 59175 34200.00000 0 -3141534.219 10465785.114 -23026265.464 10 0 59175 35100.00000 0 -5941682.052 10698936.107 -22353953.482 10 0 59175 36000.00000 0 -8607960.754 11128775.781 -21246335.904 10 0 59175 36900.00000 0 -11075816.579 11726866.535 -19724855.387 10 0 59175 37800.00000 0 -13288123.693 12454220.862 -17819050.762 10 0 59175 38700.00000 0 -15197339.378 13263013.389 -15565985.750 10 0 59175 39600.00000 0 -16767262.908 14098686.375 -13009526.752 10 0 59175 40500.00000 0 -17974324.223 14902359.211 -10199483.672 10 0 59175 41400.00000 0 -18808348.275 15613439.233 -7190630.753 10 0 59175 42300.00000 0 -19272763.268 16172322.074 -4041627.346 10 0 59175 43200.00000 0 -19384244.905 16523065.798 -813860.722 10 0 59175 44100.00000 0 -19171812.930 16615924.012 2429765.102 10 0 59175 45000.00000 0 -18675419.829 16409629.290 5626069.243 10 0 59175 45900.00000 0 -17944093.302 15873329.054 8712836.839 10 0 59175 46800.00000 0 -17033713.134 14988091.258 11630039.311 10 0 59175 47700.00000 0 -16004518.393 13747915.886 14321007.112 10 0 59175 48600.00000 0 -14918451.991 12160209.660 16733531.513 10 0 59175 49500.00000 0 -13836455.894 10245704.296 18820873.990 10 0 59175 50400.00000 0 -12815831.697 8037822.373 20542663.914 10 0 59175 51300.00000 0 -11907777.693 5581518.021 21865668.159 10 0 59175 52200.00000 0 -11155205.365 2931641.357 22764419.035 10 0 59175 53100.00000 0 -10590925.879 150895.269 23221689.906 10 0 59175 54000.00000 0 -10236281.052 -2692530.573 23228811.046 10 0 59175 54900.00000 0 -10100274.452 -5527550.694 22785821.161 10 0 59175 55800.00000 0 -10179237.243 -8282893.192 21901453.048 10 0 59175 56700.00000 0 -10457041.206 -10889816.598 20592954.705 10 0 59175 57600.00000 0 -10905848.801 -13284723.354 18885749.935 10 0 59175 58500.00000 0 -11487368.079 -15411563.419 16812945.209 10 0 59175 59400.00000 0 -12154559.594 -17223930.292 14414692.061 10 0 59175 60300.00000 0 -12853723.899 -18686764.354 11737416.699 10 0 59175 61200.00000 0 -13526882.586 -19777594.270 8832930.894 10 0 59175 62100.00000 0 -14114353.639 -20487266.145 5757440.304 10 0 59175 63000.00000 0 -14557413.673 -20820130.970 2570468.241 10 0 59175 63900.00000 0 -14800935.839 -20793682.988 -666285.230 10 0 59175 64800.00000 0 -14795892.832 -20437664.290 -3890127.793 10 0 59175 65700.00000 0 -14501619.741 -19792672.931 -7038580.819 10 0 59175 66600.00000 0 -13887741.085 -18908332.471 -10050583.913 10 0 59175 67500.00000 0 -12935680.027 -17841099.212 -12867675.135 10 0 59175 68400.00000 0 -11639684.868 -16651798.568 -15435124.262 10 0 59175 69300.00000 0 -10007327.802 -15402993.536 -17702997.060 10 0 59175 70200.00000 0 -8059452.782 -14156295.441 -19627129.845 10 0 59175 71100.00000 0 -5829572.154 -12969729.763 -21169995.166 10 0 59175 72000.00000 0 -3362734.820 -11895267.843 -22301441.328 10 0 59175 72900.00000 0 -713910.779 -10976628.517 -22999290.863 10 0 59175 73800.00000 0 2054042.805 -10247442.642 -23249785.601 10 0 59175 74700.00000 0 4872750.916 -9729858.493 -23047868.807 10 0 59175 75600.00000 0 7670928.065 -9433647.582 -22397297.921 10 0 59175 76500.00000 0 10377115.994 -9355849.470 -21310584.641 10 0 59175 77400.00000 0 12922437.852 -9480971.436 -19808762.425 10 0 59175 78300.00000 0 15243254.009 -9781735.261 -17920984.980 10 0 59175 79200.00000 0 17283608.202 -10220340.033 -15683962.704 10 0 59175 80100.00000 0 18997361.189 -10750187.662 -13141247.596 10 0 59175 81000.00000 0 20349922.019 -11317997.724 -10342380.402 10 0 59175 81900.00000 0 21319503.983 -11866221.324 -7341916.867 10 0 59175 82800.00000 0 21897852.378 -12335650.503 -4198352.874 10 0 59175 83700.00000 0 22090413.897 -12668111.141 -972970.495 10 0 59175 84600.00000 0 21915941.424 -12809123.546 2271371.178 10 0 59175 85500.00000 0 21405552.199 -12710416.404 5471475.138 10 0 59176 0.00000 0 20601280.926 -12332186.194 8565049.789 10 0 59176 900.00000 0 19554190.763 -11645004.867 11491931.200 10 0 59176 1800.00000 0 18322124.062 -10631295.804 14195258.419 10 0 59176 2700.00000 0 16967189.573 -9286313.183 16622579.511 10 0 59176 3600.00000 0 15553093.343 -7618585.935 18726865.910 10 0 59176 4500.00000 0 14142426.830 -5649806.459 20467415.985 10 0 59176 5400.00000 0 12794026.450 -3414169.959 21810631.237 10 0 59176 6300.00000 0 11560515.074 -957192.323 22730651.398 10 0 59176 7200.00000 0 10486127.604 1665943.641 23209837.674 10 0 59176 8100.00000 0 9604910.205 4392444.707 23239096.477 10 0 59176 9000.00000 0 8939366.641 7154281.323 22818039.015 10 0 59176 9900.00000 0 8499606.389 9880781.341 21954975.029 10 0 59176 10800.00000 0 8283028.133 12501337.023 20666741.864 10 0 59176 11700.00000 0 8274550.155 14948114.540 18978372.803 10 0 59176 12600.00000 0 8447376.661 17158655.280 16922611.275 10 0 59176 13500.00000 0 8764267.054 19078262.891 14539280.108 10 0 59176 14400.00000 0 9179254.603 20662078.724 11874517.363 10 0 59176 15300.00000 0 9639742.460 21876760.928 8979892.726 10 0 59176 16200.00000 0 10088889.451 22701698.621 5911420.486 10 0 59176 17100.00000 0 10468185.932 23129711.463 2728487.031 10 0 59176 18000.00000 0 10720112.016 23167205.876 -507287.318 10 0 59176 18900.00000 0 10790766.780 22833781.542 -3733231.141 10 0 59176 19800.00000 0 10632357.934 22161304.381 -6886827.314 10 0 59176 20700.00000 0 10205446.927 21192484.311 -9906918.117 10 0 59176 21600.00000 0 9480854.287 19979016.705 -12734887.174 10 0 59176 22500.00000 0 8441143.785 18579364.714 -15315795.549 10 0 59176 23400.00000 0 7081621.372 17056274.704 -17599449.912 10 0 59176 24300.00000 0 5410804.804 15474128.425 -19541381.996 10 0 59176 25200.00000 0 3450341.799 13896242.483 -21103720.082 10 0 59176 26100.00000 0 1234377.590 12382228.241 -22255935.103 10 0 59176 27000.00000 0 -1191604.258 10985522.875 -22975446.384 10 0 59176 27900.00000 0 -3772421.872 9751195.422 -23248074.491 10 0 59176 28800.00000 0 -6445249.500 8714120.385 -23068331.544 10 0 59176 29700.00000 0 -9142002.418 7897596.170 -22439542.373 10 0 59176 30600.00000 0 -11791954.091 7312467.031 -21373793.096 10 0 59176 31500.00000 0 -14324476.990 6956786.151 -19891707.053 10 0 59176 32400.00000 0 -16671792.916 6816034.480 -18022051.475 10 0 59176 33300.00000 0 -18771617.664 6863886.378 -15801181.701 10 0 59176 34200.00000 0 -20569588.799 7063489.702 -13272333.260 10 0 59176 35100.00000 0 -22021374.201 7369205.747 -10484775.436 10 0 59176 36000.00000 0 -23094372.271 7728734.584 -7492843.026 10 0 59176 36900.00000 0 -23768931.911 8085534.523 -4354865.906 10 0 59176 37800.00000 0 -24039040.909 8381431.622 -1132018.367 10 0 59176 38700.00000 0 -23912454.153 8559306.826 2112888.003 10 0 59176 39600.00000 0 -23410257.151 8565745.060 5316642.657 10 0 59176 40500.00000 0 -22565884.650 8353532.309 8416879.958 10 0 59176 41400.00000 0 -21423637.461 7883893.541 11353302.929 10 0 59176 42300.00000 0 -20036761.920 7128375.794 14068861.794 10 0 59176 43200.00000 0 -18465174.790 6070296.306 16510863.792 10 0 59176 44100.00000 0 -16772930.975 4705694.443 18631992.504 10 0 59176 45000.00000 0 -15025541.737 3043747.603 20391217.240 10 0 59176 45900.00000 0 -13287256.582 1106634.035 21754575.765 10 0 59176 46800.00000 0 -11618422.713 -1071151.210 22695816.529 10 0 59176 47700.00000 0 -10073031.884 -3443998.117 23196889.469 10 0 59176 48600.00000 0 -8696555.879 -5956851.049 23248277.642 10 0 59176 49500.00000 0 -7524159.205 -8547276.247 22849164.867 10 0 59176 50400.00000 0 -6579361.551 -11147841.964 22007437.542 10 0 59176 51300.00000 0 -5873203.603 -13688713.347 20739521.700 10 0 59176 52200.00000 0 -5403948.931 -16100355.652 19070059.078 10 0 59176 53100.00000 0 -5157332.613 -18316234.999 17031428.697 10 0 59176 54000.00000 0 -5107344.759 -20275406.290 14663122.989 10 0 59176 54900.00000 0 -5217515.211 -21924882.412 12010989.904 10 0 59176 55800.00000 0 -5442645.170 -23221687.635 9126354.842 10 0 59176 56700.00000 0 -5730913.047 -24134511.031 6065038.334 10 0 59176 57600.00000 0 -6026266.404 -24644891.833 2886287.335 10 0 59176 58500.00000 0 -6270999.831 -24747887.728 -348360.195 10 0 59176 59400.00000 0 -6408410.756 -24452198.248 -3576256.429 10 0 59176 60300.00000 0 -6385421.607 -23779737.750 -6734848.492 10 0 59176 61200.00000 0 -6155057.881 -22764675.241 -9762884.141 10 0 59176 62100.00000 0 -5678677.304 -21451980.404 -12601595.392 10 0 59176 63000.00000 0 -4927855.301 -19895535.755 -15195837.392 10 0 59176 63900.00000 0 -3885846.065 -18155893.071 -17495160.415 10 0 59176 64800.00000 0 -2548555.921 -16297767.168 -19454794.127 10 0 59176 65700.00000 0 -924985.848 -14387371.235 -21036524.780 10 0 59176 66600.00000 0 962877.869 -12489704.862 -22209447.818 10 0 59176 67500.00000 0 3080722.926 -10665907.992 -22950580.807 10 0 59176 68400.00000 0 5383095.245 -8970791.558 -23245324.036 10 0 59176 69300.00000 0 7815060.991 -7450648.457 -23087758.997 10 0 59176 70200.00000 0 10314278.948 -6141436.892 -22480777.967 10 0 59176 71100.00000 0 12813398.309 -5067412.707 -21436041.101 10 0 59176 72000.00000 0 15242682.606 -4240268.578 -19973760.817 10 0 59176 72900.00000 0 17532750.648 -3658816.580 -18122316.642 10 0 59176 73800.00000 0 19617319.767 -3309227.606 -15917707.189 10 0 59176 74700.00000 0 21435835.964 -3165817.443 -13402849.404 10 0 59176 75600.00000 0 22935879.989 -3192345.778 -10626738.542 10 0 59176 76500.00000 0 24075247.536 -3343772.342 -7643485.440 10 0 59176 77400.00000 0 24823615.297 -3568394.589 -4511250.593 10 0 59176 78300.00000 0 25163722.359 -3810274.728 -1291096.863 10 0 59176 79200.00000 0 25092017.076 -4011851.388 1954215.460 10 0 59176 80100.00000 0 24618742.568 -4116623.272 5161466.069 10 0 59176 81000.00000 0 23767458.188 -4071789.178 8268218.862 10 0 59176 81900.00000 0 22574018.415 -3830730.884 11214047.275 10 0 59176 82800.00000 0 21085053.896 -3355232.546 13941715.638 10 0 59176 83700.00000 0 19356020.313 -2617341.958 16398292.900 10 0 59176 84600.00000 0 17448898.745 -1600794.699 18536176.877 10 0 59176 85500.00000 0 15429645.503 -301941.256 20314009.445 99